Hourly Data Report for November 18, 2021

MIRAMICHI RCS
NEW BRUNSWICK
Current Station Operator: ECCC - MSC

47°00'34.000" N
65°27'54.000" W
33.00 m
8100989
71744
ACQ

Download Data

Hourly Data (November 2021)
Hourly Data Report for November 18, 2021
TIME
LST
Temp Definition
°C
Dew Point Definition
°C
Rel Hum Definition
%
Precip. Amount Definition
mm

Wind Dir Definition
10's deg

Wind Spd Definition
km/h
Visibility Definition
km
Stn Press Definition
kPa
Hmdx Definition


Wind Chill Definition


Weather Definition


00:00 -2.6 -4.4 87 0.0 0 1   102.13   -3 LegendNANA
01:00 -2.5 -4.4 87 0.0 28 2   102.18   -3 LegendNANA
02:00 -2.6 -4.6 86 0.0 28 1   102.11   -3 LegendNANA
03:00 -2.3 -3.9 89 0.0 14 2   102.07   -3 LegendNANA
04:00 -2.1 -4.1 86 0.0 16 2   101.99   -3 LegendNANA
05:00 -1.9 -3.8 87 0.0 19 2   102.00   -3 LegendNANA
06:00 -1.8 -3.0 92 0.0 16 8   101.90   -5 LegendNANA
07:00 -1.7 -2.5 94 0.3 12 6   101.87   -4 LegendNANA
08:00 -1.3 -2.0 95 0.6 12 9   101.84   -5 LegendNANA
09:00 -1.1 -1.6 96 1.0 12 11   101.74   -5 LegendNANA
10:00 -0.2 -0.8 96 1.7 11 14   101.66   -4 LegendNANA
11:00 0.6 -0.1 95 1.5 12 13   101.57     LegendNANA
12:00 0.7 0.1 96 1.3 12 14   101.37     LegendNANA
13:00 1.0 0.5 97 1.1 11 10   101.23     LegendNANA
14:00 1.3 0.9 97 1.3 11 9   101.06     LegendNANA
15:00 1.4 1.1 98 2.1 6 6   100.96     LegendNANA
16:00 1.6 1.3 98 0.2 4 5   100.87     LegendNANA
17:00 1.4 1.2 99 0.2 2 4   100.73     LegendNANA
18:00 1.7 1.5 99 0.4 36 4   100.63     LegendNANA
19:00 1.2 1.0 99 0.0 33 3   100.50     LegendNANA
20:00 1.2 1.0 99 0.2 28 3   100.38     LegendNANA
21:00 1.4 1.3 99 0.0 27 4   100.29     LegendNANA
22:00 1.6 1.4 99 0.0 25 6   100.26     LegendNANA
23:00 2.4 2.3 99 0.0 25 7   100.25     LegendNANA

Notes on Data Quality.

Legend

  • E = Estimated
  • M = Missing
  • NA = Not Available*
  • [empty] = Indicates an unobserved value
Date modified: